Location: Casteau
(50.5142°N, 4.0161°E)
Time: 22:06:51
(UTC+00:00)

X-37B - Visible Passes

Search period start: 19 June 2021 00:00
Search period end: 29 June 2021 00:00
Orbit: 386 x 389 km, 45.0° (Epoch: 10 June)

Date Brightness Start Highest point End Pass type
(mag) Time Alt. Az. Time Alt. Az. Time Alt. Az.
19 Jun 1.4 01:24:37 25° SSW 01:25:31 30° S 01:28:21 10° ESE visible
20 Jun 2.3 00:28:46 19° SE 00:28:46 19° SE 00:30:05 10° ESE visible
20 Jun 1.7 02:01:04 12° WSW 02:03:29 25° S 02:06:10 10° SE visible
21 Jun 1.5 01:05:32 28° S 01:05:32 28° S 01:08:05 10° ESE visible
21 Jun 2.3 02:39:21 10° WSW 02:41:20 16° SSW 02:43:20 10° SSE visible
22 Jun 1.9 01:43:03 21° SSW 01:43:12 21° SSW 01:45:39 10° SSE visible
22 Jun 2.8 21:30:57 10° S 21:31:22 12° S 21:31:22 12° S visible
23 Jun 1.8 22:07:58 10° SW 22:10:09 23° S 22:10:09 23° S visible
24 Jun 2.0 21:10:04 10° SSW 21:12:26 20° SSE 21:14:51 10° ESE visible
24 Jun 2.0 22:45:45 10° WSW 22:47:29 23° SW 22:47:29 23° SW visible
25 Jun 1.5 21:47:34 10° SW 21:50:21 28° S 21:51:53 19° SE visible
25 Jun 3.1 23:23:51 10° WSW 23:24:09 12° WSW 23:24:09 12° WSW visible
26 Jun 1.8 20:49:29 10° SW 20:52:09 25° SSE 20:54:49 10° ESE visible
26 Jun 1.5 22:25:31 10° WSW 22:28:17 29° S 22:28:17 29° S visible
27 Jun 1.5 21:27:16 10° WSW 21:30:07 30° S 21:32:17 14° ESE visible
27 Jun 2.8 23:03:48 10° WSW 23:04:34 14° WSW 23:04:34 14° WSW visible
28 Jun 1.7 22:05:23 10° WSW 22:08:04 25° SSW 22:08:29 24° S visible
